Location: Newark
(49.8348°N, 24.0280°E)
Time: 02:04:43
(UTC+00:00)

Explorer 7 - Pass Details

Date: 19 January 2020
Orbit: 485 x 679 km, 50.3° (Epoch: 25 February)

Event Time Altitude Azimuth Distance (km) Brightness Sun altitude
Rises 22:10:45 0° 193° (SSW) 2,538 - -60.1°
Reaches altitude 10° 22:13:58 10° 163° (SSE) 1,661 - -60.2°
Maximum altitude 22:15:35 12° 137° (SE) 1,516 - -60.2°
Drops below altitude 10° 22:17:13 10° 111° (ESE) 1,674 - -60.3°
Sets 22:20:29 0° 81° (E) 2,580 - -60.3°
